,,,PA_Meas_PMT16A,,PR_Meas_QMR101_102,,RH_Meas_QMH101,,SR_Meas_QMS101,,TA_Meas_QMH101,,GenWind,,GenWind,
date,time,status,PA,status,PR,status,RH,status,SR,status,TA,status,DirAvg,status,SpdAvg,
2011-10-12, 00:00:04,VALID,1002.34,VALID,0,VALID,92.1811,VALID,0,VALID,23.0201,VALID,127,VALID,0.825391,
2011-10-12, 00:01:04,VALID,1002.32,VALID,0,VALID,92.0971,VALID,0,VALID,23.0378,VALID,117,VALID,0.630859,
2011-10-12, 00:02:04,VALID,1002.32,VALID,0,VALID,92.1124,VALID,0,VALID,23.0573,VALID,117,VALID,0.566406,
2011-10-12, 00:03:04,VALID,1002.28,VALID,0,VALID,92.12,VALID,0,VALID,23.0573,VALID,117,VALID,0.385156,
2011-10-12, 00:04:04,VALID,1002.27,VALID,0,VALID,92.1658,VALID,0,VALID,23.0378,VALID,117,VALID,0.282031,
2011-10-12, 00:05:04,VALID,1002.26,VALID,0,VALID,92.1734,VALID,0,VALID,23.0378,VALID,117,VALID,0.339844,
2011-10-12, 00:06:04,VALID,1002.23,VALID,0,VALID,92.1353,VALID,0,VALID,22.9988,VALID,117,VALID,0.344141,
2011-10-12, 00:07:04,VALID,1002.22,VALID,0,VALID,92.1582,VALID,0.104696,VALID,22.9988,VALID,121,VALID,0.670313,
2011-10-12, 00:08:04,VALID,1002.21,VALID,0,VALID,92.0971,VALID,0,VALID,22.9385,VALID,123,VALID,0.789063,
2011-10-12, 00:09:04,VALID,1002.22,VALID,0,VALID,92.0437,VALID,0,VALID,22.9598,VALID,103,VALID,1.11563,
2011-10-12, 00:10:04,VALID,1002.23,VALID,0,VALID,91.8377,VALID,0,VALID,22.9208,VALID,114,VALID,1.31406,
2011-10-12, 00:11:04,VALID,1002.26,VALID,0,VALID,91.5326,VALID,0,VALID,22.9013,VALID,115,VALID,1.30625,
2011-10-12, 00:12:04,VALID,1002.23,VALID,0,VALID,91.3342,VALID,0,VALID,22.9013,VALID,115,VALID,0.872656,
2011-10-12, 00:13:04,VALID,1002.2,VALID,0,VALID,91.2731,VALID,0,VALID,22.9208,VALID,115,VALID,0.960156,
2011-10-12, 00:14:04,VALID,1002.19,VALID,0,VALID,91.296,VALID,0,VALID,22.9013,VALID,115,VALID,0.661719,
2011-10-12, 00:15:04,VALID,1002.16,VALID,0,VALID,91.3571,VALID,0,VALID,22.9013,VALID,115,VALID,0.851563,
2011-10-12, 00:16:04,VALID,1002.14,VALID,0,VALID,91.3571,VALID,0,VALID,22.9013,VALID,115,VALID,0.713281,
2011-10-12, 00:17:05,VALID,1002.11,VALID,0,VALID,91.4181,VALID,0,VALID,22.9208,VALID,115,VALID,0.8375,
2011-10-12, 00:18:05,VALID,1002.07,VALID,0,VALID,91.3494,VALID,0,VALID,22.8995,VALID,115,VALID,1.04297,
2011-10-12, 00:19:05,VALID,1002.04,VALID,0,VALID,91.1434,VALID,0,VALID,22.8995,VALID,115,VALID,1.02227,
2011-10-12, 00:20:05,VALID,1001.99,VALID,0,VALID,90.9146,VALID,0,VALID,22.9208,VALID,115,VALID,0.716016,
2011-10-12, 00:21:05,VALID,1001.97,VALID,0,VALID,90.6628,VALID,0,VALID,22.9403,VALID,123,VALID,0.947656,
2011-10-12, 00:22:05,VALID,1001.98,VALID,0,VALID,90.472,VALID,0,VALID,22.9403,VALID,125,VALID,1.13555,
2011-10-12, 00:23:05,VALID,1001.99,VALID,0,VALID,90.3728,VALID,0,VALID,22.9793,VALID,134,VALID,0.696875,
2011-10-12, 00:24:05,VALID,1001.95,VALID,0,VALID,90.2584,VALID,0,VALID,22.9581,VALID,134,VALID,0.376953,
2011-10-12, 00:25:05,VALID,1001.96,VALID,0,VALID,90.1363,VALID,0,VALID,22.9793,VALID,134,VALID,0.296484,
2011-10-12, 00:26:05,VALID,1001.97,VALID,0,VALID,89.854,VALID,0,VALID,22.9793,VALID,125,VALID,0.830859,
2011-10-12, 00:27:05,VALID,1001.92,VALID,0,VALID,89.5794,VALID,0,VALID,22.9988,VALID,122,VALID,0.707812,
2011-10-12, 00:28:05,VALID,1001.92,VALID,0,VALID,89.5794,VALID,0,VALID,22.9971,VALID,119,VALID,0.404687,
2011-10-12, 00:29:05,VALID,1001.91,VALID,0,VALID,89.648,VALID,0,VALID,22.9971,VALID,68,VALID,0.667578,
2011-10-12, 00:30:05,VALID,1001.91,VALID,0,VALID,89.587,VALID,0,VALID,23.0183,VALID,63,VALID,0.229297,
2011-10-12, 00:31:05,VALID,1001.88,VALID,0,VALID,89.7243,VALID,0,VALID,23.0378,VALID,63,VALID,0,
2011-10-12, 00:32:05,VALID,1001.87,VALID,0,VALID,89.7854,VALID,0,VALID,23.0166,VALID,63,VALID,0,
2011-10-12, 00:33:05,VALID,1001.85,VALID,0,VALID,89.7777,VALID,0,VALID,23.0166,VALID,63,VALID,0,
2011-10-12, 00:34:05,VALID,1001.84,VALID,0,VALID,89.6633,VALID,0,VALID,23.0166,VALID,63,VALID,0,
2011-10-12, 00:35:05,VALID,1001.85,VALID,0,VALID,89.6175,VALID,0,VALID,23.0378,VALID,63,VALID,0.243359,
2011-10-12, 00:36:05,VALID,1001.85,VALID,0,VALID,89.5031,VALID,0,VALID,23.0573,VALID,63,VALID,0.00585938,
2011-10-12, 00:37:05,VALID,1001.83,VALID,0,VALID,89.6251,VALID,0,VALID,23.0361,VALID,63,VALID,0.133984,
2011-10-12, 00:38:05,VALID,1001.82,VALID,0,VALID,89.4802,VALID,0,VALID,23.0361,VALID,62,VALID,0.559375,
2011-10-12, 00:39:05,VALID,1001.79,VALID,0,VALID,89.2742,VALID,0,VALID,23.0964,VALID,63,VALID,0.443359,
2011-10-12, 00:40:05,VALID,1001.76,VALID,0,VALID,88.7859,VALID,0,VALID,23.1141,VALID,132,VALID,1.24961,
2011-10-12, 00:41:05,VALID,1001.74,VALID,0,VALID,88.4502,VALID,0,VALID,23.1939,VALID,135,VALID,0.878516,
2011-10-12, 00:42:05,VALID,1001.75,VALID,0,VALID,88.29,VALID,0.104696,VALID,23.2329,VALID,154,VALID,0.80625,
2011-10-12, 00:43:05,VALID,1001.75,VALID,0,VALID,88.1755,VALID,0,VALID,23.2719,VALID,146,VALID,0.928516,
2011-10-12, 00:44:05,VALID,1001.71,VALID,0,VALID,88.3357,VALID,0,VALID,23.2702,VALID,155,VALID,1.21758,
2011-10-12, 00:45:05,VALID,1001.69,VALID,0,VALID,88.5951,VALID,0,VALID,23.2897,VALID,139,VALID,0.760547,
2011-10-12, 00:46:05,VALID,1001.68,VALID,0,VALID,88.4044,VALID,0,VALID,23.2915,VALID,139,VALID,0.769531,
2011-10-12, 00:47:05,VALID,1001.71,VALID,0,VALID,88.3129,VALID,0,VALID,23.2897,VALID,139,VALID,0.721094,
2011-10-12, 00:48:05,VALID,1001.68,VALID,0,VALID,87.8398,VALID,0,VALID,23.2915,VALID,139,VALID,0.814453,
2011-10-12, 00:49:05,VALID,1001.67,VALID,0,VALID,87.7788,VALID,0,VALID,23.2897,VALID,139,VALID,0.796875,
2011-10-12, 00:50:05,VALID,1001.68,VALID,0,VALID,87.7635,VALID,0,VALID,23.2915,VALID,139,VALID,0.562891,
2011-10-12, 00:51:05,VALID,1001.63,VALID,0,VALID,87.9085,VALID,0,VALID,23.2702,VALID,139,VALID,0.445703,
2011-10-12, 00:52:05,VALID,1001.65,VALID,0,VALID,87.9085,VALID,0,VALID,23.2719,VALID,139,VALID,0.467578,
2011-10-12, 00:53:05,VALID,1001.66,VALID,0,VALID,87.7711,VALID,0,VALID,23.2719,VALID,139,VALID,0.302344,
2011-10-12, 00:54:05,VALID,1001.64,VALID,0,VALID,87.7406,VALID,0.104696,VALID,23.2719,VALID,139,VALID,0,
2011-10-12, 00:55:05,VALID,1001.59,VALID,0,VALID,88.1068,VALID,0,VALID,23.2719,VALID,139,VALID,0.232031,
2011-10-12, 00:56:05,VALID,1001.57,VALID,0,VALID,88.2213,VALID,0,VALID,23.2117,VALID,139,VALID,0.428516,
2011-10-12, 00:57:05,VALID,1001.58,VALID,0,VALID,88.2137,VALID,0.104696,VALID,23.2134,VALID,81,VALID,0.282031,
2011-10-12, 00:58:05,VALID,1001.54,VALID,0,VALID,88.3739,VALID,0,VALID,23.2134,VALID,81,VALID,0.408594,
2011-10-12, 00:59:05,VALID,1001.55,VALID,0,VALID,88.5417,VALID,0,VALID,23.1939,VALID,81,VALID,0.11875,
2011-10-12, 01:00:05,VALID,1001.52,VALID,0,VALID,88.702,VALID,0,VALID,23.1744,VALID,81,VALID,0.514063,
2011-10-12, 01:01:05,VALID,1001.51,VALID,0,VALID,88.8851,VALID,0,VALID,23.1531,VALID,81,VALID,0.422266,
2011-10-12, 01:02:05,VALID,1001.47,VALID,0,VALID,89.0834,VALID,0,VALID,23.1744,VALID,81,VALID,0.674219,
2011-10-12, 01:03:05,VALID,1001.45,VALID,0,VALID,89.2055,VALID,0,VALID,23.1549,VALID,112,VALID,0.667578,
2011-10-12, 01:04:05,VALID,1001.47,VALID,0,VALID,89.3657,VALID,0,VALID,23.1549,VALID,119,VALID,0.780078,
2011-10-12, 01:05:05,VALID,1001.44,VALID,0,VALID,89.4344,VALID,0,VALID,23.1336,VALID,119,VALID,0.677734,
2011-10-12, 01:06:05,VALID,1001.41,VALID,0,VALID,89.5412,VALID,0,VALID,23.1531,VALID,119,VALID,0.408594,
2011-10-12, 01:07:05,VALID,1001.44,VALID,0,VALID,89.6328,VALID,0,VALID,23.1744,VALID,119,VALID,0.36875,
2011-10-12, 01:08:05,VALID,1001.42,VALID,0,VALID,89.6251,VALID,0,VALID,23.1744,VALID,119,VALID,0.141406,
2011-10-12, 01:09:05,VALID,1001.43,VALID,0,VALID,89.5717,VALID,0,VALID,23.1549,VALID,119,VALID,0,
2011-10-12, 01:10:05,VALID,1001.43,VALID,0,VALID,89.6633,VALID,0,VALID,23.1549,VALID,119,VALID,0.139844,
2011-10-12, 01:11:05,VALID,1001.42,VALID,0,VALID,89.7014,VALID,0,VALID,23.1549,VALID,119,VALID,0.220703,
2011-10-12, 01:12:05,VALID,1001.39,VALID,0,VALID,89.7243,VALID,0,VALID,23.1549,VALID,119,VALID,0.626562,
2011-10-12, 01:13:05,VALID,1001.4,VALID,0,VALID,89.5107,VALID,0.104696,VALID,23.1531,VALID,119,VALID,0.803906,
2011-10-12, 01:14:05,VALID,1001.4,VALID,0,VALID,89.3657,VALID,0.104696,VALID,23.1921,VALID,119,VALID,0.530469,
2011-10-12, 01:15:05,VALID,1001.41,VALID,0,VALID,89.2894,VALID,0,VALID,23.2329,VALID,119,VALID,0.417578,
2011-10-12, 01:16:05,VALID,1001.42,VALID,0,VALID,89.2513,VALID,0,VALID,23.2524,VALID,119,VALID,0.338281,
2011-10-12, 01:17:05,VALID,1001.41,VALID,0,VALID,88.9843,VALID,0,VALID,23.2312,VALID,119,VALID,0.0503906,
2011-10-12, 01:18:05,VALID,1001.43,VALID,0,VALID,88.8698,VALID,0,VALID,23.2719,VALID,119,VALID,0.0828125,
2011-10-12, 01:19:05,VALID,1001.41,VALID,0,VALID,88.8851,VALID,0,VALID,23.2897,VALID,119,VALID,0.339844,
2011-10-12, 01:20:05,VALID,1001.45,VALID,0,VALID,88.6943,VALID,0,VALID,23.3305,VALID,119,VALID,0.518359,
2011-10-12, 01:21:05,VALID,1001.4,VALID,0,VALID,88.6333,VALID,0,VALID,23.3677,VALID,215,VALID,0.925,
2011-10-12, 01:22:05,VALID,1001.4,VALID,0,VALID,88.5189,VALID,0.104696,VALID,23.4067,VALID,232,VALID,0.467187,
2011-10-12, 01:23:05,VALID,1001.37,VALID,0,VALID,88.3357,VALID,0.104696,VALID,23.4458,VALID,222,VALID,0.4875,
2011-10-12, 01:24:05,VALID,1001.32,VALID,0,VALID,88.2366,VALID,0,VALID,23.4671,VALID,222,VALID,0.508594,
2011-10-12, 01:25:05,VALID,1001.33,VALID,0,VALID,88.1068,VALID,0,VALID,23.4848,VALID,222,VALID,0.649609,
2011-10-12, 01:26:05,VALID,1001.35,VALID,0,VALID,88.084,VALID,0,VALID,23.5061,VALID,222,VALID,0.648828,
2011-10-12, 01:27:05,VALID,1001.32,VALID,0,VALID,88.1984,VALID,0,VALID,23.5256,VALID,222,VALID,0.513281,
2011-10-12, 01:28:05,VALID,1001.32,VALID,0,VALID,88.4197,VALID,0,VALID,23.4653,VALID,222,VALID,0.534766,
2011-10-12, 01:29:05,VALID,1001.32,VALID,0,VALID,88.3586,VALID,0,VALID,23.4475,VALID,222,VALID,0.402734,
2011-10-12, 01:30:05,VALID,1001.27,VALID,0,VALID,88.4044,VALID,0,VALID,23.4085,VALID,222,VALID,0.397266,
2011-10-12, 01:31:05,VALID,1001.3,VALID,0,VALID,88.5799,VALID,0,VALID,23.389,VALID,222,VALID,0.528906,
2011-10-12, 01:32:05,VALID,1001.24,VALID,0,VALID,88.6867,VALID,0,VALID,23.3695,VALID,222,VALID,0.485938,
2011-10-12, 01:33:05,VALID,1001.22,VALID,0,VALID,88.7706,VALID,0,VALID,23.3287,VALID,222,VALID,0.306641,
2011-10-12, 01:34:05,VALID,1001.21,VALID,0,VALID,88.8164,VALID,0,VALID,23.3092,VALID,222,VALID,0.287109,
2011-10-12, 01:35:05,VALID,1001.15,VALID,0,VALID,88.9003,VALID,0,VALID,23.2702,VALID,222,VALID,0,
2011-10-12, 01:36:05,VALID,1001.15,VALID,0,VALID,89.0834,VALID,0,VALID,23.2702,VALID,222,VALID,0.109766,
2011-10-12, 01:37:05,VALID,1001.12,VALID,0,VALID,89.3886,VALID,0,VALID,23.2507,VALID,222,VALID,0.307813,
2011-10-12, 01:38:05,VALID,1001.1,VALID,0,VALID,89.5336,VALID,0,VALID,23.2329,VALID,222,VALID,0.278516,
2011-10-12, 01:39:05,VALID,1001.08,VALID,0,VALID,89.3886,VALID,0.104696,VALID,23.1939,VALID,220,VALID,0.662109,
2011-10-12, 01:40:05,VALID,1001.06,VALID,0,VALID,89.1216,VALID,0,VALID,23.1726,VALID,189,VALID,0.590234,
2011-10-12, 01:41:05,VALID,1001.01,VALID,0,VALID,88.8546,VALID,0,VALID,23.1921,VALID,178,VALID,0.982031,
2011-10-12, 01:42:05,VALID,1000.98,VALID,0,VALID,88.4883,VALID,0,VALID,23.2117,VALID,178,VALID,0.740625,
2011-10-12, 01:43:05,VALID,1000.95,VALID,0,VALID,88.4273,VALID,0,VALID,23.2507,VALID,171,VALID,0.832031,
2011-10-12, 01:44:05,VALID,1000.92,VALID,0,VALID,88.3892,VALID,0.104696,VALID,23.2915,VALID,171,VALID,0.696094,
2011-10-12, 01:45:05,VALID,1000.9,VALID,0,VALID,88.3434,VALID,0,VALID,23.2702,VALID,171,VALID,0.976953,
2011-10-12, 01:46:05,VALID,1000.87,VALID,0,VALID,88.4273,VALID,0,VALID,23.2507,VALID,168,VALID,1.01953,
2011-10-12, 01:47:05,VALID,1000.85,VALID,0,VALID,88.702,VALID,0.104696,VALID,23.2507,VALID,168,VALID,0.996875,
2011-10-12, 01:48:05,VALID,1000.84,VALID,0,VALID,88.8393,VALID,0,VALID,23.2329,VALID,168,VALID,0.876953,
2011-10-12, 01:49:05,VALID,1000.81,VALID,0,VALID,88.9766,VALID,0,VALID,23.1726,VALID,168,VALID,0.787109,
2011-10-12, 01:50:05,VALID,1000.8,VALID,0,VALID,88.9156,VALID,0,VALID,23.1336,VALID,168,VALID,0.770703,
2011-10-12, 01:51:05,VALID,1000.81,VALID,0,VALID,88.8546,VALID,0,VALID,23.1354,VALID,168,VALID,0.717969,
2011-10-12, 01:52:05,VALID,1000.79,VALID,0,VALID,88.9003,VALID,0,VALID,23.1141,VALID,207,VALID,0.886719,
2011-10-12, 01:53:05,VALID,1000.78,VALID,0,VALID,88.8774,VALID,0,VALID,23.1549,VALID,207,VALID,0.65,
2011-10-12, 01:54:05,VALID,1000.77,VALID,0,VALID,88.7172,VALID,0,VALID,23.1549,VALID,174,VALID,0.775,
2011-10-12, 01:55:05,VALID,1000.72,VALID,0,VALID,88.5265,VALID,0.104696,VALID,23.1336,VALID,154,VALID,0.536719,
2011-10-12, 01:56:05,VALID,1000.72,VALID,0,VALID,88.3663,VALID,0,VALID,23.1354,VALID,154,VALID,0.0691406,
2011-10-12, 01:57:05,VALID,1000.73,VALID,0,VALID,88.3663,VALID,0,VALID,23.1336,VALID,154,VALID,0,
2011-10-12, 01:58:05,VALID,1000.7,VALID,0,VALID,88.7477,VALID,0.104696,VALID,23.1141,VALID,154,VALID,0.289453,
2011-10-12, 01:59:05,VALID,1000.69,VALID,0,VALID,89.2284,VALID,0,VALID,23.0964,VALID,154,VALID,0.463672,
2011-10-12, 02:00:05,VALID,1000.68,VALID,0,VALID,89.6786,VALID,0,VALID,23.0166,VALID,154,VALID,0.348047,
2011-10-12, 02:01:05,VALID,1000.65,VALID,0,VALID,90.0524,VALID,0,VALID,22.9988,VALID,154,VALID,0.272266,
2011-10-12, 02:02:05,VALID,1000.68,VALID,0,VALID,90.3728,VALID,0,VALID,22.9385,VALID,154,VALID,0.169922,
2011-10-12, 02:03:05,VALID,1000.64,VALID,0,VALID,90.6017,VALID,0,VALID,22.8995,VALID,154,VALID,0.155859,
2011-10-12, 02:04:05,VALID,1000.66,VALID,0,VALID,90.7391,VALID,0,VALID,22.8623,VALID,154,VALID,0.0210938,
2011-10-12, 02:05:05,VALID,1000.62,VALID,0,VALID,90.9298,VALID,0,VALID,22.8215,VALID,154,VALID,0.249219,
2011-10-12, 02:06:05,VALID,1000.59,VALID,0,VALID,91.1892,VALID,0,VALID,22.7825,VALID,154,VALID,0.432031,
2011-10-12, 02:07:05,VALID,1000.53,VALID,0,VALID,91.3571,VALID,0,VALID,22.8037,VALID,154,VALID,0.405078,
2011-10-12, 02:08:05,VALID,1000.52,VALID,0,VALID,91.5249,VALID,0,VALID,22.7647,VALID,154,VALID,0.581641,
2011-10-12, 02:09:05,VALID,1000.5,VALID,0,VALID,91.7385,VALID,0,VALID,22.7647,VALID,154,VALID,0.610937,
2011-10-12, 02:10:05,VALID,1000.46,VALID,0,VALID,91.7843,VALID,0,VALID,22.7452,VALID,154,VALID,0.571875,
2011-10-12, 02:11:05,VALID,1000.43,VALID,0,VALID,91.6851,VALID,0,VALID,22.7647,VALID,154,VALID,0.648438,
2011-10-12, 02:12:05,VALID,1000.45,VALID,0,VALID,91.5554,VALID,0,VALID,22.7825,VALID,137,VALID,0.823438,
2011-10-12, 02:13:05,VALID,1000.44,VALID,0,VALID,91.4334,VALID,0,VALID,22.8427,VALID,120,VALID,0.922266,
2011-10-12, 02:14:05,VALID,1000.43,VALID,0,VALID,91.5249,VALID,0,VALID,22.8818,VALID,120,VALID,0.851563,
2011-10-12, 02:15:05,VALID,1000.41,VALID,0,VALID,91.6546,VALID,0,VALID,22.9013,VALID,120,VALID,0.957812,
2011-10-12, 02:16:05,VALID,1000.4,VALID,0,VALID,91.7233,VALID,0,VALID,22.8995,VALID,120,VALID,0.739844,
2011-10-12, 02:17:05,VALID,1000.37,VALID,0,VALID,91.7614,VALID,0,VALID,22.9208,VALID,120,VALID,0.378906,
2011-10-12, 02:18:05,VALID,1000.36,VALID,0,VALID,91.7309,VALID,0,VALID,22.9403,VALID,120,VALID,0.472266,
2011-10-12, 02:19:05,VALID,1000.34,VALID,0,VALID,91.7157,VALID,0,VALID,22.9403,VALID,120,VALID,0.25,
2011-10-12, 02:20:05,VALID,1000.33,VALID,0,VALID,91.6928,VALID,0,VALID,22.919,VALID,120,VALID,0.133984,
2011-10-12, 02:21:05,VALID,1000.31,VALID,0,VALID,91.6775,VALID,0,VALID,22.919,VALID,120,VALID,0.151562,
2011-10-12, 02:22:05,VALID,1000.31,VALID,0,VALID,91.7309,VALID,0,VALID,22.9403,VALID,120,VALID,0.153516,
2011-10-12, 02:23:05,VALID,1000.33,VALID,0,VALID,91.7233,VALID,0,VALID,22.9208,VALID,120,VALID,0.274609,
2011-10-12, 02:24:05,VALID,1000.3,VALID,0,VALID,91.708,VALID,0,VALID,22.9013,VALID,120,VALID,0.519531,
2011-10-12, 02:25:05,VALID,1000.33,VALID,0,VALID,91.7157,VALID,0,VALID,22.8818,VALID,120,VALID,0.700781,
2011-10-12, 02:26:05,VALID,1000.34,VALID,0,VALID,91.7538,VALID,0,VALID,22.8605,VALID,120,VALID,0.51875,
2011-10-12, 02:27:05,VALID,1000.36,VALID,0,VALID,91.7767,VALID,0,VALID,22.8818,VALID,120,VALID,0.478125,
2011-10-12, 02:28:05,VALID,1000.37,VALID,0,VALID,91.8072,VALID,0,VALID,22.8605,VALID,120,VALID,0.389453,
2011-10-12, 02:29:05,VALID,1000.31,VALID,0,VALID,91.8225,VALID,0,VALID,22.8818,VALID,120,VALID,0.230078,
2011-10-12, 02:30:05,VALID,1000.32,VALID,0,VALID,91.8377,VALID,0,VALID,22.8818,VALID,120,VALID,0.178125,
2011-10-12, 02:31:05,VALID,1000.29,VALID,0,VALID,91.8301,VALID,0,VALID,22.8818,VALID,120,VALID,0,
2011-10-12, 02:32:05,VALID,1000.29,VALID,0,VALID,91.8454,VALID,0,VALID,22.8427,VALID,120,VALID,0,
2011-10-12, 02:33:05,VALID,1000.3,VALID,0,VALID,91.8301,VALID,0,VALID,22.8232,VALID,120,VALID,0,
2011-10-12, 02:34:05,VALID,1000.29,VALID,0,VALID,91.9674,VALID,0,VALID,22.8215,VALID,120,VALID,0.107813,
2011-10-12, 02:35:05,VALID,1000.23,VALID,0,VALID,92.059,VALID,0,VALID,22.8427,VALID,120,VALID,0.467578,
2011-10-12, 02:36:05,VALID,1000.27,VALID,0,VALID,92.0895,VALID,0,VALID,22.841,VALID,120,VALID,0.688281,
2011-10-12, 02:37:05,VALID,1000.24,VALID,0,VALID,92.1429,VALID,0,VALID,22.841,VALID,120,VALID,0.616016,
2011-10-12, 02:38:05,VALID,1000.23,VALID,0,VALID,92.204,VALID,0,VALID,22.841,VALID,120,VALID,0.55625,
2011-10-12, 02:39:05,VALID,1000.24,VALID,0,VALID,92.2803,VALID,0,VALID,22.88,VALID,120,VALID,0.453906,
2011-10-12, 02:40:05,VALID,1000.23,VALID,0,VALID,92.3031,VALID,0,VALID,22.88,VALID,120,VALID,0.469141,
2011-10-12, 02:41:05,VALID,1000.23,VALID,0,VALID,92.3337,VALID,0,VALID,22.88,VALID,120,VALID,0.319141,
2011-10-12, 02:42:05,VALID,1000.22,VALID,0,VALID,92.326,VALID,0,VALID,22.9013,VALID,120,VALID,0.224219,
2011-10-12, 02:43:05,VALID,1000.19,VALID,0,VALID,92.3184,VALID,0,VALID,22.8818,VALID,120,VALID,0.136328,
2011-10-12, 02:44:05,VALID,1000.19,VALID,0,VALID,92.3108,VALID,0,VALID,22.8818,VALID,120,VALID,0.253906,
2011-10-12, 02:45:05,VALID,1000.16,VALID,0,VALID,92.3031,VALID,0,VALID,22.841,VALID,120,VALID,0.482422,
2011-10-12, 02:46:05,VALID,1000.19,VALID,0,VALID,92.4328,VALID,0,VALID,22.8215,VALID,120,VALID,0.35625,
2011-10-12, 02:47:05,VALID,1000.2,VALID,0,VALID,92.5091,VALID,0,VALID,22.8232,VALID,120,VALID,0.339063,
2011-10-12, 02:48:05,VALID,1000.16,VALID,0,VALID,92.5549,VALID,0,VALID,22.8037,VALID,120,VALID,0.273438,
2011-10-12, 02:49:05,VALID,1000.14,VALID,0,VALID,92.6083,VALID,0,VALID,22.8037,VALID,120,VALID,0.234375,
2011-10-12, 02:50:05,VALID,1000.13,VALID,0,VALID,92.6465,VALID,0.104696,VALID,22.763,VALID,120,VALID,0.308984,
2011-10-12, 02:51:05,VALID,1000.12,VALID,0,VALID,92.6694,VALID,0,VALID,22.763,VALID,120,VALID,0.300781,
2011-10-12, 02:52:05,VALID,1000.13,VALID,0,VALID,92.7457,VALID,0,VALID,22.786,VALID,120,VALID,0.353516,
2011-10-12, 02:53:05,VALID,1000.15,VALID,0,VALID,92.7838,VALID,0,VALID,22.7664,VALID,120,VALID,0.351172,
2011-10-12, 02:54:05,VALID,1000.1,VALID,0,VALID,92.8448,VALID,0,VALID,22.7664,VALID,120,VALID,0.463281,
2011-10-12, 02:55:05,VALID,1000.08,VALID,0,VALID,92.8525,VALID,0,VALID,22.7469,VALID,106,VALID,0.858594,
2011-10-12, 02:56:05,VALID,1000.08,VALID,0,VALID,92.9059,VALID,0,VALID,22.7469,VALID,26,VALID,0.809766,
2011-10-12, 02:57:05,VALID,1000.06,VALID,0,VALID,92.9669,VALID,0,VALID,22.7257,VALID,26,VALID,0.857813,
2011-10-12, 02:58:05,VALID,1000.06,VALID,0,VALID,92.9364,VALID,0,VALID,22.7274,VALID,26,VALID,0.76875,
2011-10-12, 02:59:05,VALID,1000.05,VALID,0,VALID,92.9745,VALID,0,VALID,22.7274,VALID,26,VALID,0.645703,
2011-10-12, 03:00:05,VALID,1000.05,VALID,0,VALID,93.0203,VALID,0,VALID,22.7274,VALID,26,VALID,0.721484,
2011-10-12, 03:01:05,VALID,1000.03,VALID,0,VALID,93.0661,VALID,0,VALID,22.7274,VALID,26,VALID,0.773438,
2011-10-12, 03:02:05,VALID,1000.04,VALID,0,VALID,93.0661,VALID,0,VALID,22.7274,VALID,26,VALID,0.822266,
2011-10-12, 03:03:04,VALID,1000.04,VALID,0,VALID,93.0127,VALID,0,VALID,22.6867,VALID,26,VALID,0.978125,
2011-10-12, 03:04:04,VALID,1000.02,VALID,0,VALID,93.0051,VALID,0,VALID,22.6884,VALID,16,VALID,0.994922,
2011-10-12, 03:05:04,VALID,1000.05,VALID,0,VALID,92.9593,VALID,0,VALID,22.6689,VALID,16,VALID,0.500391,
2011-10-12, 03:06:04,VALID,1000.05,VALID,0,VALID,92.9745,VALID,0,VALID,22.6689,VALID,16,VALID,0.328516,
2011-10-12, 03:07:04,VALID,1000.05,VALID,0,VALID,92.9898,VALID,0,VALID,22.6672,VALID,16,VALID,0.252344,
2011-10-12, 03:08:04,VALID,1000.01,VALID,0,VALID,93.0585,VALID,0,VALID,22.6655,VALID,16,VALID,0.361719,
2011-10-12, 03:09:04,VALID,1000.01,VALID,0,VALID,93.089,VALID,0,VALID,22.6655,VALID,16,VALID,0.382422,
2011-10-12, 03:10:04,VALID,1000.01,VALID,0,VALID,93.1195,VALID,0,VALID,22.6655,VALID,16,VALID,0.55625,
2011-10-12, 03:11:04,VALID,1000.01,VALID,0,VALID,93.1271,VALID,0,VALID,22.6655,VALID,16,VALID,0.53125,
2011-10-12, 03:12:04,VALID,1000.03,VALID,0,VALID,93.1424,VALID,0,VALID,22.685,VALID,16,VALID,0.767187,
2011-10-12, 03:13:04,VALID,1000.02,VALID,0,VALID,93.1348,VALID,0,VALID,22.7062,VALID,16,VALID,0.869922,
2011-10-12, 03:14:04,VALID,1000.06,VALID,0,VALID,93.1119,VALID,0.104696,VALID,22.7045,VALID,16,VALID,0.953516,
2011-10-12, 03:15:04,VALID,1000.04,VALID,0,VALID,93.0814,VALID,0,VALID,22.724,VALID,16,VALID,1.04023,
2011-10-12, 03:16:04,VALID,1000.05,VALID,0,VALID,93.0585,VALID,0.104696,VALID,22.7452,VALID,16,VALID,1.07461,
2011-10-12, 03:17:04,VALID,1000.07,VALID,0,VALID,93.0051,VALID,0.104696,VALID,22.7435,VALID,16,VALID,1.05977,
2011-10-12, 03:18:04,VALID,1000.06,VALID,0,VALID,92.9898,VALID,0,VALID,22.7435,VALID,16,VALID,0.990234,
2011-10-12, 03:19:04,VALID,1000.1,VALID,0,VALID,92.9593,VALID,0.104696,VALID,22.7435,VALID,16,VALID,0.774609,
2011-10-12, 03:20:04,VALID,1000.1,VALID,0,VALID,92.9211,VALID,0,VALID,22.7435,VALID,16,VALID,0.541406,
2011-10-12, 03:21:04,VALID,1000.08,VALID,0,VALID,92.9288,VALID,0.104696,VALID,22.763,VALID,16,VALID,0.394922,
2011-10-12, 03:22:04,VALID,1000.11,VALID,0,VALID,92.944,VALID,0,VALID,22.7435,VALID,16,VALID,0.16875,
2011-10-12, 03:23:04,VALID,1000.09,VALID,0,VALID,92.944,VALID,0,VALID,22.763,VALID,16,VALID,0,
2011-10-12, 03:24:04,VALID,1000.11,VALID,0,VALID,92.9517,VALID,0.104696,VALID,22.7647,VALID,16,VALID,0,
2011-10-12, 03:25:04,VALID,1000.11,VALID,0,VALID,92.9669,VALID,0.104696,VALID,22.7435,VALID,16,VALID,0,
2011-10-12, 03:26:04,VALID,1000.14,VALID,0,VALID,92.9669,VALID,0.104696,VALID,22.7257,VALID,16,VALID,0,
2011-10-12, 03:27:04,VALID,1000.14,VALID,0,VALID,92.9745,VALID,0,VALID,22.7257,VALID,16,VALID,0,
2011-10-12, 03:28:04,VALID,1000.11,VALID,0,VALID,92.9593,VALID,0.104696,VALID,22.6655,VALID,16,VALID,0,
2011-10-12, 03:29:04,VALID,1000.07,VALID,0,VALID,92.9593,VALID,0.104696,VALID,22.6655,VALID,16,VALID,0,
2011-10-12, 03:30:04,VALID,1000.08,VALID,0,VALID,93.0203,VALID,0,VALID,22.6655,VALID,16,VALID,0.538281,
2011-10-12, 03:31:04,VALID,1000.05,VALID,0,VALID,93.0661,VALID,0,VALID,22.646,VALID,16,VALID,0.887109,
2011-10-12, 03:32:04,VALID,1000.03,VALID,0,VALID,93.089,VALID,0.104696,VALID,22.6655,VALID,20,VALID,1.00977,
2011-10-12, 03:33:04,VALID,1000.04,VALID,0,VALID,93.0356,VALID,0.104696,VALID,22.6264,VALID,45,VALID,0.522266,
2011-10-12, 03:34:04,VALID,1000.04,VALID,0,VALID,92.9974,VALID,0,VALID,22.5874,VALID,45,VALID,0.2875,
2011-10-12, 03:35:04,VALID,1000.08,VALID,0,VALID,92.944,VALID,0,VALID,22.5874,VALID,45,VALID,0.466406,
2011-10-12, 03:36:04,VALID,1000.11,VALID,0,VALID,92.9669,VALID,0.104696,VALID,22.6087,VALID,45,VALID,0.839844,
2011-10-12, 03:37:04,VALID,1000.1,VALID,0,VALID,93.028,VALID,0,VALID,22.5874,VALID,45,VALID,0.943359,
2011-10-12, 03:38:04,VALID,1000.1,VALID,0,VALID,93.0508,VALID,0,VALID,22.6087,VALID,45,VALID,0.6125,
2011-10-12, 03:39:04,VALID,1000.14,VALID,0,VALID,93.0585,VALID,0.104696,VALID,22.5892,VALID,45,VALID,0.180469,
2011-10-12, 03:40:04,VALID,1000.12,VALID,0,VALID,93.0356,VALID,0,VALID,22.5679,VALID,45,VALID,0,
2011-10-12, 03:41:04,VALID,1000.12,VALID,0,VALID,93.0661,VALID,0,VALID,22.5289,VALID,45,VALID,0.0917969,
2011-10-12, 03:42:04,VALID,1000.15,VALID,0,VALID,93.0966,VALID,0,VALID,22.5289,VALID,45,VALID,0.0191406,
2011-10-12, 03:43:04,VALID,1000.15,VALID,0,VALID,93.1043,VALID,0,VALID,22.5289,VALID,45,VALID,0.207031,
2011-10-12, 03:44:04,VALID,1000.15,VALID,0,VALID,93.1424,VALID,0,VALID,22.5289,VALID,45,VALID,0.391406,